Wind_Speed
24 23 21 20 19 18 17 15 15 13 11 10 9 8 8 9 10 11 12 12 11 11 11 10 11 11 12 13 15 16 16 18 18 15 10 10 10 11 12 11 12 12 10 6 7
27 26 25 23 22 22 21 19 18 17 16 15 13 12 11 12 12 14 15 15 16 15 14 14 15 16 17 17 18 19 20 20 17 13 11 12 12 13 13 13 13 11 9 8 10
30 29 28 27 25 25 24 23 22 20 20 19 17 16 15 16 16 16 17 18 19 19 19 19 19 20 20 20 21 23 22 19 14 14 15 15 15 15 16 14 14 15 12 11 11
34 33 32 30 29 28 28 27 26 24 23 22 21 20 20 19 20 18 20 21 22 23 23 23 22 22 22 22 23 22 19 17 16 17 17 17 16 16 17 16 18 17 16 15 15
38 37 36 35 33 32 32 31 30 28 27 26 25 24 24 23 24 22 22 23 24 24 24 24 24 24 25 25 24 20 19 20 20 19 17 18 17 18 18 19 19 18 16 15 16
41 40 40 39 38 36 36 35 34 33 31 30 30 29 28 28 27 27 26 26 26 27 27 27 27 27 27 27 25 21 23 23 23 21 19 19 20 21 20 20 19 18 18 17 17
45 44 42 42 41 40 39 39 38 36 36 35 35 34 32 32 32 32 31 31 31 31 31 31 31 30 30 29 26 25 24 24 24 23 22 23 23 23 23 24 22 21 21 21 23
48 47 46 46 45 43 43 42 41 41 40 40 39 38 37 36 34 33 33 33 33 34 34 34 34 33 32 29 27 27 26 24 23 24 25 24 24 24 25 26 26 26 25 26 27
51 50 49 48 47 46 46 46 45 44 44 44 43 42 40 37 37 37 36 36 35 35 34 35 35 34 30 30 29 29 25 23 22 24 25 26 24 28 30 30 30 30 30 30 30
52 51 50 51 50 49 49 48 47 47 46 46 45 45 43 40 39 39 38 37 37 37 37 35 34 32 28 31 29 28 27 25 23 27 30 30 30 29 31 32 31 31 30 28 26
55 54 53 52 51 49 50 49 49 48 47 46 48 47 45 43 41 40 40 39 37 37 36 36 35 29 31 31 31 31 29 27 27 32 33 32 33 30 30 29 28 27 25 27 28
55 54 55 54 53 52 52 52 51 53 52 51 51 51 49 47 46 43 41 40 39 36 35 34 31 31 32 33 33 31 32 30 32 35 37 36 32 28 26 25 26 25 28 30 31
58 57 56 56 54 51 51 51 51 52 53 49 48 48 47 45 44 42 39 37 36 36 35 37 37 33 33 33 33 34 36 35 39 39 38 36 31 27 27 26 28 30 31 31 31
61 59 58 57 56 53 51 51 49 49 54 52 47 48 46 44 44 39 38 36 36 35 36 38 34 33 35 36 38 40 39 41 41 41 38 36 36 28 29 29 29 30 32 31 31
65 62 60 59 57 54 53 55 54 53 57 53 50 48 47 47 44 39 38 39 39 38 40 40 39 38 39 38 40 42 41 41 41 40 40 37 38 35 32 31 32 32 31 32 35
71 68 64 62 59 57 58 57 58 58 61 54 53 51 45 42 41 40 37 39 38 40 40 41 43 42 39 38 39 39 38 39 42 43 43 36 39 43 38 34 32 34 35 32 32
72 74 69 66 63 61 62 61 61 67 59 57 55 54 53 49 45 44 46 47 47 48 46 44 44 45 43 40 39 38 39 42 43 43 42 41 42 41 41 38 34 32 33 33 35
68 69 71 70 68 71 73 68 72 64 62 58 60 55 59 53 47 47 47 49 46 48 49 47 43 42 40 38 39 40 42 42 43 43 45 44 44 44 39 38 38 37 36 40 44
58 68 70 60 71 74 75 75 65 57 63 63 61 59 56 57 54 50 51 48 49 48 47 48 46 43 41 41 41 42 44 40 45 47 47 46 46 44 43 42 41 40 45 48 50
47 51 56 64 61 65 75 75 62 63 60 58 58 55 55 58 59 53 50 47 47 46 45 48 46 42 42 42 44 45 44 47 48 48 48 49 47 47 48 49 43 44 47 48 51
51 64 64 55 56 64 72 62 60 54 50 51 51 49 52 55 57 55 51 50 48 43 42 44 45 44 44 45 44 47 48 49 49 50 49 50 53 54 55 51 48 48 50 53 58
56 62 61 57 63 67 67 55 56 53 51 48 49 51 51 46 48 50 51 47 44 43 44 41 46 47 47 48 49 50 50 50 51 49 48 52 53 56 54 52 53 53 55 59 61
58 61 62 58 66 65 64 62 58 56 53 53 57 54 52 53 53 48 48 48 49 47 47 45 49 49 51 53 53 48 48 50 50 49 54 55 57 54 51 53 52 53 58 60 61
49 54 62 67 68 68 61 66 64 62 63 56 57 57 58 60 55 54 53 54 55 51 52 50 53 55 56 56 53 54 54 53 53 57 58 61 56 57 52 52 51 57 64 68 67
47 55 51 58 60 62 68 68 65 66 69 63 64 60 60 61 60 58 59 57 58 57 56 59 60 59 60 59 60 60 60 58 60 59 63 58 61 57 51 52 54 59 66 66 65
55 54 61 54 55 58 61 65 69 68 66 65 66 64 63 62 62 60 62 61 62 65 61 64 64 63 64 63 64 66 64 63 62 62 64 65 65 57 58 61 60 63 65 64 62
68 63 62 59 48 50 52 52 51 50 59 61 62 63 65 65 65 63 63 66 68 66 67 64 61 60 65 64 64 66 70 66 66 65 63 67 62 65 64 64 63 62 63 64 65
Wind_Direction
221 219 221 223 225 224 225 227 229 229 227 230 235 245 256 259 254 250 245 243 240 241 247 256 267 279 288 296 301 305 310 315 320 318 313 306 307 307 311 324 330 333 329 323 324
222 224 226 228 228 230 233 234 234 235 237 238 242 249 259 264 264 259 252 250 249 251 257 266 276 282 286 292 296 302 306 307 307 307 307 302 303 299 301 317 319 317 312 306 308
224 226 228 232 234 234 234 238 240 241 243 244 245 253 259 260 264 263 258 255 255 256 261 268 274 278 283 290 297 301 301 299 292 297 302 297 295 294 295 309 303 307 304 297 293
228 230 231 233 236 237 238 239 242 244 245 247 251 255 261 263 263 263 261 260 260 261 265 270 273 277 282 289 297 298 296 295 289 293 299 293 290 289 290 292 295 296 297 295 295
229 231 233 234 235 238 240 241 243 246 247 249 252 256 261 263 261 261 263 263 263 264 266 269 273 277 283 290 295 289 288 290 287 289 290 288 287 286 289 288 291 296 294 289 292
231 232 233 236 237 237 239 242 244 246 249 252 256 258 261 263 263 263 264 266 265 266 267 271 274 279 286 289 287 283 288 289 286 286 286 283 286 287 288 288 288 289 289 287 283
234 235 236 237 239 241 243 244 247 249 251 254 256 259 260 262 264 266 265 265 266 267 269 271 274 277 284 286 280 279 280 281 283 286 284 282 283 288 290 287 288 287 290 291 292
237 238 239 240 241 243 245 247 249 251 254 255 257 259 262 264 264 265 265 265 265 266 268 270 273 276 281 279 277 276 276 276 279 278 277 278 280 285 287 290 292 292 289 287 287
239 240 240 242 244 245 247 250 252 254 256 258 260 261 261 262 264 266 266 266 266 266 267 268 272 275 276 276 277 274 274 274 273 276 277 278 279 282 282 284 285 285 286 288 292
240 241 242 243 244 246 248 251 253 255 257 258 259 261 263 263 264 266 266 266 267 268 268 269 270 271 275 272 269 269 271 267 273 276 278 279 281 282 278 279 280 281 281 283 286
241 242 243 243 245 247 248 251 253 255 256 258 260 261 263 263 263 263 264 265 266 267 269 269 269 273 265 267 270 269 269 269 274 276 274 275 276 279 280 279 281 284 285 286 287
243 242 244 246 247 248 250 252 254 256 255 257 259 261 260 262 262 260 260 262 263 264 265 267 267 265 268 268 268 271 271 276 278 276 272 274 274 275 273 276 279 280 284 287 284
238 241 244 245 247 250 251 253 254 256 256 253 256 258 260 258 259 259 259 258 260 263 266 266 266 263 265 267 269 269 273 276 276 276 274 274 271 271 275 276 279 284 285 286 285
238 239 241 243 246 247 251 251 254 256 256 254 252 255 256 258 257 260 261 263 263 264 263 264 266 265 265 268 270 269 271 273 277 274 273 269 278 267 271 275 280 283 282 284 284
237 238 240 243 244 245 245 249 252 252 255 258 254 253 254 257 262 260 262 262 266 267 265 268 265 265 269 269 267 268 269 270 271 271 270 273 278 282 275 281 281 278 279 281 283
232 234 239 241 244 244 246 246 250 250 254 256 260 257 253 254 257 262 265 264 266 268 268 267 266 267 269 267 265 265 264 264 266 267 270 275 277 280 286 286 285 285 282 281 280
244 236 233 238 242 245 247 248 248 251 257 257 263 262 256 259 260 262 264 261 263 267 268 266 264 264 268 266 262 261 261 262 263 267 275 277 274 281 286 289 285 278 278 280 279
242 249 247 240 239 242 243 246 247 253 254 260 266 268 264 264 263 264 265 260 258 260 264 261 262 261 259 259 257 256 257 260 267 271 272 273 279 284 285 283 283 288 290 291 293
239 246 248 249 245 240 246 244 253 258 256 262 263 264 264 261 263 266 269 259 255 259 261 261 259 259 257 256 257 258 260 263 265 266 271 278 281 284 283 284 287 291 292 292 289
234 242 247 244 244 249 248 251 254 254 255 255 260 258 259 254 255 266 263 256 258 260 258 258 258 254 254 254 256 259 262 264 265 267 272 276 282 283 282 282 287 289 289 292 293
233 230 234 233 239 241 246 248 252 248 251 256 254 253 254 252 251 263 264 255 254 253 255 255 255 257 257 259 261 262 263 264 266 269 278 287 284 283 284 290 293 294 293 296 294
228 235 232 230 237 240 242 241 241 248 242 257 249 253 251 255 255 256 261 258 252 249 249 251 253 256 258 259 261 262 264 267 267 277 282 279 282 283 287 292 291 291 294 292 289
229 231 233 231 239 240 236 237 241 243 246 248 250 253 250 260 256 253 253 254 253 250 251 253 255 256 257 259 262 268 278 276 271 269 275 274 285 283 283 286 288 289 289 287 286
229 232 233 238 243 239 240 236 239 244 245 250 252 252 255 256 253 257 256 260 253 252 252 253 255 255 262 268 264 269 274 269 263 270 277 278 276 277 280 283 285 285 286 288 289
234 228 233 233 232 236 237 237 241 245 242 246 249 251 256 259 257 263 259 260 255 252 253 260 263 262 266 267 266 272 270 267 268 272 270 279 274 275 279 281 283 286 288 287 289
222 228 232 233 232 235 236 239 242 242 245 250 247 251 256 259 261 265 263 258 260 254 259 265 266 266 266 265 264 268 268 268 269 270 276 277 274 275 279 281 286 286 284 285 287
218 224 231 238 238 237 238 240 240 241 246 246 250 253 255 258 263 262 263 260 259 255 260 262 264 264 256 260 262 264 271 272 276 275 274 271 277 280 282 284 285 284 286 288 285
Height
5846 5848 5851 5853 5856 5858 5860 5861 5863 5864 5865 5867 5868 5870 5871 5872 5873 5875 5876 5877 5878 5879 5879 5880 5880 5880 5881 5881 5881 5880 5881 5879 5878 5877 5876 5876 5876 5876 5877 5877 5877 5877 5876 5875 5875
5841 5844 5847 5850 5852 5854 5857 5858 5860 5861 5863 5864 5866 5867 5868 5870 5871 5872 5873 5874 5875 5876 5877 5877 5878 5878 5878 5878 5878 5878 5877 5877 5876 5874 5874 5874 5874 5874 5873 5873 5873 5873 5873 5873 5873
5835 5838 5841 5845 5847 5850 5852 5855 5857 5858 5860 5861 5862 5864 5865 5866 5868 5869 5870 5871 5872 5872 5873 5874 5874 5874 5874 5875 5874 5874 5873 5872 5872 5872 5871 5871 5871 5870 5870 5871 5870 5869 5869 5869 5868
5828 5832 5835 5838 5842 5844 5847 5849 5852 5854 5856 5857 5859 5860 5861 5862 5864 5865 5866 5867 5868 5868 5869 5869 5870 5870 5870 5870 5870 5870 5869 5868 5868 5868 5867 5866 5867 5867 5866 5867 5866 5866 5865 5865 5864
5822 5825 5829 5832 5835 5838 5842 5844 5846 5849 5851 5852 5854 5855 5857 5858 5859 5860 5861 5862 5863 5863 5864 5865 5865 5865 5866 5866 5865 5864 5864 5864 5864 5864 5864 5862 5862 5862 5862 5861 5861 5861 5861 5861 5860
5815 5818 5821 5825 5828 5831 5834 5837 5840 5842 5844 5846 5848 5850 5851 5853 5853 5854 5855 5856 5857 5858 5859 5859 5859 5860 5861 5861 5860 5860 5859 5859 5858 5859 5859 5858 5857 5856 5857 5856 5856 5856 5856 5856 5856
5806 5810 5813 5817 5821 5824 5827 5829 5832 5834 5837 5839 5841 5843 5845 5846 5847 5848 5849 5850 5851 5851 5852 5853 5853 5854 5854 5855 5854 5855 5854 5853 5852 5853 5853 5853 5852 5851 5850 5850 5851 5851 5851 5851 5850
5798 5802 5805 5808 5812 5815 5818 5821 5824 5826 5829 5831 5833 5835 5838 5839 5840 5841 5841 5843 5843 5844 5845 5846 5847 5847 5848 5848 5848 5848 5848 5848 5849 5848 5847 5848 5847 5846 5845 5845 5845 5845 5845 5844 5844
5788 5792 5796 5799 5803 5806 5809 5812 5815 5817 5820 5822 5825 5827 5830 5832 5832 5832 5834 5835 5836 5837 5838 5839 5839 5840 5841 5840 5841 5841 5842 5843 5843 5842 5841 5842 5843 5841 5840 5840 5840 5839 5839 5838 5838
5778 5782 5786 5789 5793 5797 5800 5802 5805 5808 5811 5813 5816 5818 5822 5823 5824 5825 5825 5826 5828 5829 5830 5831 5831 5832 5834 5831 5833 5834 5835 5837 5838 5836 5833 5834 5835 5837 5835 5834 5834 5834 5833 5832 5832
5767 5771 5775 5779 5783 5787 5790 5793 5796 5798 5800 5803 5805 5808 5810 5813 5815 5817 5817 5818 5819 5821 5821 5822 5824 5827 5824 5824 5825 5826 5827 5829 5830 5827 5826 5827 5827 5829 5828 5828 5827 5827 5827 5826 5825
5756 5760 5764 5768 5772 5776 5779 5782 5784 5786 5790 5793 5795 5797 5800 5803 5805 5807 5808 5810 5811 5812 5812 5814 5816 5817 5817 5817 5817 5818 5817 5820 5820 5818 5818 5818 5819 5820 5820 5821 5820 5819 5819 5819 5818
5743 5749 5753 5757 5761 5766 5769 5771 5772 5774 5776 5783 5783 5786 5789 5792 5795 5797 5799 5800 5802 5803 5804 5804 5806 5809 5809 5809 5809 5809 5809 5811 5809 5809 5809 5809 5810 5812 5811 5810 5811 5811 5810 5809 5809
5730 5736 5741 5745 5751 5756 5759 5758 5761 5763 5762 5768 5775 5774 5778 5781 5783 5789 5791 5793 5793 5794 5794 5792 5797 5799 5799 5800 5801 5798 5801 5801 5800 5798 5799 5800 5797 5803 5802 5801 5801 5801 5800 5800 5800
5716 5722 5727 5734 5739 5744 5746 5746 5749 5753 5752 5758 5761 5766 5769 5771 5776 5780 5781 5782 5782 5784 5785 5786 5786 5789 5789 5791 5788 5789 5791 5790 5789 5789 5788 5791 5789 5790 5793 5794 5793 5790 5789 5789 5789
5699 5707 5713 5719 5727 5731 5731 5733 5736 5741 5735 5743 5748 5755 5759 5762 5766 5768 5771 5772 5774 5773 5774 5775 5775 5776 5779 5779 5778 5779 5780 5780 5779 5778 5777 5784 5781 5775 5782 5786 5785 5785 5784 5781 5782
5686 5691 5698 5706 5714 5715 5716 5720 5723 5722 5727 5732 5737 5742 5747 5751 5755 5758 5760 5761 5762 5762 5764 5765 5765 5765 5766 5768 5768 5769 5769 5768 5769 5768 5770 5771 5769 5770 5769 5769 5771 5771 5773 5774 5774
5673 5678 5685 5691 5696 5698 5700 5704 5704 5716 5718 5722 5725 5731 5735 5740 5743 5745 5746 5747 5749 5751 5750 5752 5754 5754 5756 5757 5758 5758 5758 5759 5759 5759 5759 5758 5757 5759 5761 5761 5759 5759 5759 5760 5759
5661 5664 5669 5677 5682 5681 5681 5680 5690 5699 5706 5711 5716 5716 5719 5725 5730 5731 5732 5733 5736 5738 5739 5740 5741 5744 5745 5746 5748 5748 5748 5753 5749 5747 5746 5747 5746 5747 5747 5746 5746 5748 5749 5749 5748
5648 5647 5652 5663 5669 5671 5662 5665 5681 5687 5690 5696 5700 5705 5705 5709 5714 5717 5719 5723 5724 5726 5726 5727 5729 5732 5734 5736 5736 5738 5741 5739 5737 5737 5736 5735 5734 5733 5732 5733 5736 5737 5738 5735 5732
5633 5632 5642 5650 5653 5647 5641 5656 5666 5673 5678 5681 5686 5689 5691 5693 5698 5702 5706 5708 5711 5715 5714 5716 5718 5722 5722 5725 5728 5729 5727 5727 5728 5725 5724 5725 5723 5720 5719 5722 5722 5723 5721 5720 5718
5617 5618 5628 5634 5630 5629 5631 5649 5655 5658 5664 5667 5671 5674 5677 5681 5684 5689 5692 5697 5698 5701 5702 5706 5705 5708 5711 5712 5714 5713 5714 5714 5712 5715 5715 5711 5711 5707 5709 5710 5709 5707 5705 5703 5700
5601 5607 5611 5615 5612 5615 5625 5632 5638 5644 5648 5655 5657 5662 5665 5669 5672 5677 5681 5685 5685 5687 5690 5694 5692 5694 5696 5697 5698 5701 5703 5702 5701 5700 5697 5697 5700 5696 5697 5697 5695 5692 5690 5687 5684
5587 5588 5592 5595 5599 5606 5612 5618 5624 5632 5635 5640 5647 5648 5652 5654 5659 5663 5668 5671 5674 5675 5677 5678 5679 5680 5683 5685 5687 5687 5688 5686 5685 5683 5683 5680 5686 5684 5684 5681 5679 5676 5673 5670 5668
5568 5569 5579 5581 5588 5595 5601 5602 5610 5616 5622 5627 5630 5635 5639 5641 5646 5650 5654 5657 5660 5662 5661 5661 5663 5667 5669 5671 5669 5671 5671 5670 5668 5669 5663 5674 5670 5673 5670 5666 5662 5659 5657 5653 5652
5550 5555 5563 5570 5576 5581 5585 5587 5596 5605 5606 5612 5616 5623 5624 5626 5633 5636 5638 5642 5643 5646 5646 5646 5647 5650 5650 5651 5650 5650 5655 5652 5652 5654 5652 5653 5654 5658 5652 5648 5646 5643 5639 5637 5634
5532 5541 5549 5555 5561 5565 5570 5577 5584 5588 5590 5596 5603 5606 5609 5614 5615 5618 5621 5625 5625 5630 5632 5631 5631 5634 5632 5635 5633 5631 5637 5637 5640 5638 5640 5635 5643 5634 5634 5631 5628 5626 5622 5619 5613